FREGAT DEB, 45847

Orbit data source: Space-Track

FREGAT DEB, 45847 is space debris in LEO originally from a launch on Mon, 18 Jul 2011 UTC launched from the Tyuratam Missile And Space Complex (TTMTR). Debris objects in space refer to the collection of defunct objects orbiting the Earth. Examples of debris include non-operational satellites, rocket bodies, and fragments generated from explosions, collisions, or faulty payload assembly.

Loading next visibility...
Identifier
45847, 2011-037CH
Orbit
LEO
Country
Flag of CISCIS
Related business
Manufacturer
Lavochkin
Mission
Spacecraft
Bus & Motor
Unknown
Mass
Unknown
Launch date (UTC)
2011-07-18 (15 years ago)
Launch vehicle
Unknown
Launch site
Tyuratam Missile And Space Complex (TTMTR)
Object type
Payload
Rocket body
Debris
Shape & HBR
Unknown shape, 0.1 m
Radar Cross Section
Small (<0.1 m²)

Expand to show TLE details & history
Last TLE update: 1 day ago

TLE from 1 day ago
0 FREGAT DEB
1 45847U 11037CH  26035.31880882  .00071033  00000-0  45950-2 0  9993
2 45847  51.4017  15.0068 0990774  87.5940 283.7849 13.41236740244144
Epoch: 2026-02-04T07:39Z
TLE epoch observation values (Epoch: 2026-02-04T07:39:05.082Z)
Latitude
-0.00006°
Longitude
125.74847°
Altitude
1,000.028 km
Speed
7.404 km/s
True Right ascension
01h 00m 01s
True Declination
0° 00' 00"
Sunlit
Object was in daylight at epoch
Visualization orbit readout
Latitude
Unknown
Longitude
Unknown
Altitude
Unknown
Speed
Unknown
Apparent Right ascension
Unknown
Apparent Declination
Unknown
Sunlit
N/A
Visualization observer readout
Local Sidereal Time
17:05:52
Azimuth
Unknown
Elevation
Unknown
Doppler factor
Unknown
Orbital elements
Apogee altitude
1,846.609 km
Perigee altitude
363.753 km
Semi-major axis
7,483.318 km
Eccentricity
0.09908
Inclination
51.4017°
RAAN
15.0068°
Arg. of periapsis
87.594°
True anomaly
272.49733°
Mean anomaly
283.7849°
Eccentric anomaly
278.16574°
Mean motion
3.35276 °/min
Orbital period
107.37 mins
BSTAR
0.004595
Loading maneuver chart data...
Computing Atmospheric mass density...
Loading historical data...
Loading historical data...
Loading historical data...
Loading historical data...
Loading historical data...
Loading historical data...
Loading historical data...

Documentation

Showing up to 5 results
|